Tracking 30009 objects as of 7-Dec-2024
HD Live streaming from Space Station
objects crossing your sky now

CZ-4B R/B

Track CZ-4B R/B now!
10-day predictions


NORAD ID: 46481
Int'l Code: 2020-067D
Perigee: 341.1 km
Apogee: 412.8 km
Inclination: 98.0 °
Period: 91.9 minutes
Semi major axis: 6747 km
RCS: Unknown
Launch date: September 27, 2020
Source: People's Republic of China (PRC)
Launch site: Taiyaun Space Center, China (TSC)

Note: This is a ROCKET BODY
Your satellite tracking list
Your tracking list is empty




NASA's NSSDC Master Catalog

Two Line Element Set (TLE):
1 46481U 20067D   24342.46096971  .00116202  00000-0  10366-2 0  9995
2 46481  98.0079 166.0021 0053089 128.2306 232.3748 15.66197542232845
Source of the keplerian elements: AFSPC